weather.gov     
National Weather Service

Terminal Aerodrome Forecast
NWS Homepage
This page is being discontinued on March 12, 2014.
The same data is available at this site. Please update your bookmarks.
Thank you, and we apologize for the inconvenience.
Please send an email to SR-SRH.Webmaster@noaa.gov with any concerns.


Current Version
Previous Version:    01  02  03  04  05  06  07  08  09  10  11  12  13  14  15  16  17  18  19  20  21  
[Printable]
391
FTUS43 KGRB 310500
TAFMTW
TAF
KMTW 310520Z 3106/0106 32013G22KT P6SM BKN035 OVC050
      TEMPO 3106/3108 3SM -SHSN
     FM310800 34020G32KT 6SM -SHSN BKN025 OVC050
      TEMPO 3108/3112 1SM -SHSN BKN015
     FM311300 35028G40KT P6SM OVC035
     FM312100 36020G30KT P6SM SCT040
     FM010000 35012G20KT P6SM SCT035=


U.S. Dept. of Commerce
NOAA National Weather Service
1325 East West Highway
Silver Spring, MD 20910
E-mail: w-nws.webmaster@noaa.gov
Page last modified: May 16, 2007
NATIONAL WEATHER SERVICE: for Safety, for Work, for Fun - FOR LIFE